Погода в Петрозаводске

Хотите узнать прогноз погоды в Петрозаводске? Тогда Вам сюда: Погода в Петрозаводске

Поиск расширенной информации на нашем сайте:

Полезная информация:

Новости сайта



02.01.2020
Опубликован Долгосрочный прогноз погоды по городам России и ближнего зарубежья на январь 2020 года.
Карты: Прогноз на январь и февраль 2020 года, Сравнение прогнозируемой аномалии приземной температуры воздуха на январь 2020 года по разным моделям.




Погода в Петрозаводске - сегодня

Время (UTC), дата Ветер
(°,м/с) 
Видим.   Явления Облачность Т
(°С)
Тd
(°С)
f(%) Тe
(°С)
Pmin
(гПа)
dP
(гПа)
Po
(мм)
O2
(г/м3)
Тmin Tmax R s Состояние
почвы
21 22.09.20 260 (З) 20000 м    ясно 
+8.3 +0.5 58 +8  1007.3  2.6  746  291           
00 23.09.20 260 (З) 20000 м    3/0 средняя 
[Ac trans]
+6.9 +0.9 66 +7  1009.3  1.9  747  293           
03 23.09.20 220 (ЮЗ) 20000 м    10/0 средняя 
[Ac As]
+6.1 +2 75 +6  1010.5  1.2  748  294  +5.8         
06 23.09.20 170 (Ю) 20000 м    3/0 средняя 
[Ac trans]
+8.9 +2.2 63 +9  1011.4  749  292  +5.8        влажная 
09 23.09.20 190 (Ю) 20000 м    8/0 верхняя 
[Cc]
+13.6 +4.3 53 +14  1010.6  -0.6  748  286           
12 23.09.20 180 (Ю) 20000 м    4/3 600 м верхняя 
[Cu hum|Ci fib]
+15.6 +7.1 57 +16  1009.4  -1  747  284           
15 23.09.20 220 (ЮЗ) 20000 м    1/0 средняя 
[Ac trans]
+14.1 +7.7 65 +15  1008.6  -0.9  747  285           
18 23.09.20 200 (Ю) 20000 м    ясно 
+12.5 +8 74 +12  1008.3  -0.4  746  286    +15.8       
21 23.09.20 220 (ЮЗ) 20000 м    ясно 
+13.7 +9.7 77 +15  1008  -0.2  746  285           
00 24.09.20 220 (ЮЗ) 20000 м    ясно 
+14.3 +11 81 +18  1008.3  0.3  746  284           
03 24.09.20 210 (ЮЗ) 20000 м    8/0 средняя, верхняя 
[Ac trans|Ci fib]
+12.7 +10.2 85 +15  1008.7  0.3  747  286  +10.7         
06 24.09.20 220 (ЮЗ) 20000 м    6/0 средняя, верхняя 
[Ac trans|Ci fib]
+14.9 +11.1 78 +19  1009.5  0.9  747  283  +12.3        влажная 
09 24.09.20 270 (З) 20000 м    4/0 верхняя 
[Ci fib]
+18.7 +12.1 65 +24  1010.5  0.9  748  280           
12 24.09.20 070 (В) 20000 м    8/0 верхняя 
[Ci fib]
+20.1 +12.8 63 +25  1011.6  1.1  749  279           
15 24.09.20 200 (Ю) 22000 м    8/0 средняя, верхняя 
[Ac trans|Ci fib]
+18.9 +12.1 65 +24  1012  0.4  749  280           
18 24.09.20 180 (Ю) 20000 м    3/0 верхняя 
[Ci fib]
+16.1 +11.9 76 +21  1012.4  0.6  750  283    +21.5       
21 24.09.20 200 (Ю) 20000 м    ясно 
+14.6 +16    0.2  750  287           
00 25.09.20 120 (ЮВ) 20000 м    ясно 
+11.7 +9.3 85 +12  1013  0.1  750  288           
03 25.09.20 180 (Ю) 20000 м    3/0 средняя, верхняя 
[Ac trans|Ci fib]
+12.2 +7.3 72 +12  1012.2  -0.7  749  288  +11.2         
06 25.09.20 210 (ЮЗ) 20000 м    8/0 верхняя 
[Ci fib]
+13.6 +6.6 63 +13  1012.2  749  287  +11.2        влажная 
09 25.09.20 200 (Ю) 5{10}  20000 м    4/0 верхняя 
[Ci fib]
+18.7 +6.1 44 +19  1013.1  0.8  750  282           
12 25.09.20 200 (Ю) 3{10}  20000 м    4/0 верхняя 
[Ci fib]
+20.9 +4.5 34 +21  1014  751  280           
15 25.09.20 200 (Ю) 20000 м    9/0 верхняя 
[Ci fib]
+17.2 +4.8 44 +18  1014.2  0.4  751  284           
18 25.09.20 190 (Ю) 5{10}  20000 м    8/0 верхняя 
[Ci fib]
+15.9 +6.6 54 +16  1015.1  0.8  752  285    +21.2       
21 25.09.20 200 (Ю) 20000 м    3/0 верхняя 
[Ci fib]
+14.5 +5.8 56 +14  1015.8  0.6  752  287           
Время (UTC), дата Ветер
(°,м/с) 
Видим.   Явления Облачность Т
(°С)
Тd
(°С)
f(%) Тe
(°С)
Pmin
(гПа)
dP
(гПа)
Po
(мм)
O2
(г/м3)
Тmin Tmax R s Состояние
почвы

Для получения пояснительной информации подведите курсор к названию столбца.

ПОГОДА в Петрозаводске - архив

Всё, что Вы хотите узнать о погоде в Петрозаводске - удобно и подробно!

Выберите нужную дату (начиная с 1 января 2019* года) и нажмите кнопку "Найти".
Будут отображены архивные сводки погоды по пункту Петрозаводск, начиная с указанной даты.


Отображать данные в формате CSV (для использования в таблицах Excel)


Внимание! Наш архив погоды предназначен исключительно для личного некоммерческого использования в познавательных целях. Если Вам необходимы официальные справки о состоянии погоды (для производственных, юридических, коммерческих и т.п. целей), обращайтесь в органы Росгидромета.

*Примечание: данная дата относится к архиву по метеостанциям СССР (Россия, СНГ, Балтия).
Архив по метеостанциям Зарубежной Европы и Азии (кроме Китая) хранится 10 дней, по другим регионам земного шара (Китай, Африка, Америка, Австралия, Океания) - 1 день.

Петрозаводск - район местоположения метеостанции


Название, широта, долгота, высота метеостанции:
Петрозаводск 61.8°ш. 34.3°д. 110 м над ур. моря [Российская Федерация]

Дополнительная информация

В oтличие oт бoльшинства пoгoдных сайтoв мы публикуем пoдрoбную метеoинфoрмацию в детальнoм прoфессиoнальнoм фoрмате.

Характеристики температуры и влажнoсти вoздуха измеряются на высoте 2 м в тени вдали oт зданий и деревьев.
Скoрoсть ветра измеряется на высoте 10 м (на урoвне рoста челoвека скoрoсть ветра ниже в 1.5-2 раза). Если метеoстанция нахoдится в гoрoде или в лесу, тo скoрoсть ветра занижена на 2-4 м/с пo сравнению с oткрытым местoм. Скoрoсть ветра над акватoриями крупных рек и oзёр, а также на вершинах хoлмoв на 2-5 м/с выше, чем в oбычных услoвиях.
Атмoсфернoе давление в разных тoчках местнoсти мoжет значительнo oтличаться oт давления на метеoстанции, в зависимoсти oт услoвий рельефа (при пoдъёме на 10 м давление пoнижается примернo на 1 мм рт.ст.).